Location: Taaricht
(32.5378°N, 5.4251°W)
Time: 16:51:51
(UTC+00:00)

Cosmos 1939 Rocket - Pass Details

Date: 09 April 2020
Orbit: 533 x 584 km, 97.4° (Epoch: 26 May)

Event Time Altitude Azimuth Distance (km) Brightness Sun altitude
Rises 19:25:14 0° 182° (S) 2,705 6.2 -8.6°
Reaches altitude 10° 19:27:26 10° 189° (S) 1,808 5.4 -9.0°
Maximum altitude 19:31:09 42° 261° (W) 775 4.1 -9.8°
Drops below altitude 10° 19:34:51 10° 333° (NNW) 1,798 6.1 -10.5°
Sets 19:37:03 0° 341° (NNW) 2,688 6.9 -11.0°
